1485255600.0,4498,10.44,73362.3,4.17,-37.69,-37.87,0,*4E
1485255601.25,4499,10.44,73362.5,4.17,-37.69,-37.87,0,*4F
1485255602.5,4500,10.44,73362.3,4.19,-37.99,-38.23,0,*4E
1485255603.72,4501,10.5,73366.0,4.19,-37.99,-38.05,0,*4B
1485255604.94,4502,10.5,73364.8,4.13,-37.75,-37.87,0,*45
1485255606.14,4503,10.5,73366.0,4.19,-37.87,-37.87,0,*43
1485255607.37,4504,10.5,73366.8,4.19,-37.81,-37.87,0,*42
1485255608.59,4505,10.44,73360.3,4.17,-38.05,-38.35,0,*48
1485255609.82,4506,10.5,73362.8,4.17,-38.17,-38.43,0,*49
1485255611.09,4507,10.44,73362.0,4.17,-37.69,-37.81,0,*4F
1485255612.37,4508,10.44,73360.8,4.17,-38.23,-38.49,0,*4A
1485255613.56,4509,10.44,73364.3,4.19,-37.87,-38.05,0,*4C
1485255614.8,4510,10.44,73362.3,4.19,-37.51,-37.69,0,*4A
1485255616.02,4511,10.44,73362.5,4.17,-37.87,-38.05,0,*4B
1485255617.24,4512,10.44,73362.5,4.19,-38.05,-38.23,0,*47
1485255618.44,4513,10.44,73360.0,4.19,-38.05,-38.43,0,*40
1485255619.68,4514,10.44,73360.0,4.21,-38.43,-38.79,0,*47
1485255620.93,4515,10.5,73366.8,4.17,-38.85,-39.23,0,*47
1485255622.17,4516,10.5,73366.3,4.17,-38.97,-39.15,0,*42
1485255623.42,4517,10.44,73364.3,4.13,-38.29,-38.55,0,*47
1485255624.67,4518,10.44,73362.0,4.17,-38.43,-38.67,0,*41
1485255625.93,4519,10.44,73362.3,4.13,-38.91,-39.23,0,*4A
1485255627.2,4520,10.44,73362.0,4.13,-38.67,-38.91,0,*41
1485255628.44,4521,10.5,73364.8,4.13,-38.05,-38.11,0,*4C
1485255629.71,4522,10.44,73360.0,4.13,-38.23,-38.49,0,*46
1485255630.97,4523,10.5,73362.8,4.13,-38.91,-39.23,0,*43
1485255632.24,4524,10.5,73366.3,4.13,-39.03,-39.41,0,*4A
1485255633.46,4525,10.44,73362.3,4.11,-39.09,-39.29,0,*4D
1485255634.66,4526,10.5,73364.3,4.11,-38.35,-38.55,0,*4A
1485255635.85,4527,10.44,73362.8,4.11,-38.35,-38.73,0,*4F
1485255637.12,4528,10.5,73364.5,4.09,-38.29,-38.49,0,*4D
1485255638.34,4529,10.5,73364.5,4.11,-38.17,-38.49,0,*48
1485255639.59,4530,10.44,73362.0,4.09,-38.11,-38.17,0,*44
1485255640.84,4531,10.44,73364.5,4.09,-37.75,-37.81,0,*48
1485255642.09,4532,10.44,73362.8,4.11,-37.39,-37.63,0,*46
1485255643.34,4533,10.44,73360.8,4.11,-37.93,-37.99,0,*42
1485255644.59,4534,10.44,73362.5,4.11,-37.81,-37.93,0,*4C
1485255645.78,4535,10.5,73364.3,4.11,-38.35,-38.73,0,*4C
1485255646.97,4536,10.44,73362.0,4.11,-38.17,-38.55,0,*4B
1485255648.22,4537,10.44,73362.3,4.11,-37.93,-37.99,0,*46
1485255649.5,4538,10.44,73362.3,4.13,-38.49,-38.67,0,*4D
1485255650.7,4539,10.44,73362.0,4.11,-38.17,-38.55,0,*44
1485255651.92,4540,10.44,73364.0,4.11,-38.55,-38.91,0,*44
1485255653.14,4541,10.44,73364.5,4.11,-39.15,-39.47,0,*4A
1485255654.38,4542,10.44,73362.5,4.09,-38.97,-39.29,0,*43
1485255655.63,4543,10.44,73364.0,4.09,-38.17,-38.49,0,*4D
1485255656.87,4544,10.44,73362.0,4.09,-38.35,-38.49,0,*4A
1485255658.12,4545,10.5,73366.8,4.09,-38.55,-38.91,0,*48
1485255659.35,4546,10.44,73364.5,4.09,-38.17,-38.35,0,*43
1485255660.57,4547,10.5,73364.0,4.09,-38.61,-38.97,0,*4B
1485255661.78,4548,10.44,73360.8,4.09,-38.55,-38.73,0,*49
1485255662.98,4549,10.44,73364.8,4.11,-38.35,-38.55,0,*43
1485255664.23,4550,10.5,73366.0,4.09,-37.99,-38.35,0,*4D
1485255665.48,4551,10.5,73364.8,4.11,-38.11,-38.29,0,*47
1485255666.75,4552,10.5,73366.8,4.09,-37.63,-37.81,0,*4A
1485255667.98,4553,10.44,73364.5,4.11,-37.75,-37.81,0,*45
1485255669.25,4554,10.44,73360.5,4.09,-37.81,-37.93,0,*43
1485255670.5,4555,10.44,73362.0,4.09,-37.75,-37.81,0,*4A
1485255671.78,4556,10.44,73362.3,4.09,-37.93,-37.93,0,*42
1485255672.99,4557,10.44,73360.5,4.11,-37.75,-37.93,0,*42
1485255674.24,4558,10.44,73362.8,4.09,-37.75,-37.81,0,*47
1485255675.46,4559,10.44,73360.8,4.11,-37.75,-37.93,0,*4C
1485255676.68,4560,10.44,73360.5,4.11,-37.93,-38.17,0,*4D
1485255677.9,4561,10.44,73362.5,4.11,-37.99,-38.17,0,*46
1485255679.14,4562,10.5,73366.3,4.11,-37.93,-38.11,0,*49
1485255680.41,4563,10.5,73364.8,4.13,-37.93,-38.11,0,*4A
1485255681.66,4564,10.44,73362.8,4.13,-38.05,-38.23,0,*4C
1485255682.93,4565,10.5,73364.8,4.13,-37.69,-37.93,0,*4C
1485255684.18,4566,10.5,73364.5,4.11,-37.81,-37.93,0,*4B
1485255685.43,4567,10.5,73364.0,4.11,-37.81,-37.93,0,*4A
1485255686.69,4568,10.5,73366.5,4.11,-37.81,-37.81,0,*46
1485255687.94,4569,10.5,73364.5,4.17,-37.09,-37.33,0,*48
1485255689.16,4570,10.5,73364.0,4.13,-37.75,-37.87,0,*40
1485255690.38,4571,10.5,73364.0,4.13,-37.57,-37.75,0,*4C
1485255691.59,4572,10.5,73366.3,4.17,-37.27,-37.45,0,*4F
1485255692.84,4573,10.44,73362.5,4.17,-37.33,-37.51,0,*4E
1485255694.13,4574,10.5,73366.0,4.17,-37.81,-37.99,0,*44
1485255695.39,4575,10.44,73360.5,4.17,-37.63,-37.69,0,*46
1485255696.64,4576,10.5,73364.8,4.13,-37.87,-37.93,0,*4E
1485255697.92,4577,10.44,73364.5,4.17,-38.49,-38.67,0,*42
1485255699.19,4578,10.44,73362.3,4.13,-38.23,-38.29,0,*4F
1485255700.41,4579,10.5,73364.0,4.13,-37.87,-38.05,0,*41
1485255701.66,4580,10.44,73366.0,4.13,-38.29,-38.43,0,*4E
1485255702.92,4581,10.44,73364.3,4.17,-37.81,-37.87,0,*41
1485255704.2,4582,10.44,73360.0,4.17,-37.63,-37.81,0,*48
1485255705.45,4583,10.44,73360.5,4.17,-38.05,-38.23,0,*41
1485255706.72,4584,10.44,73360.3,4.13,-38.11,-38.23,0,*47
1485255707.99,4585,10.44,73360.3,4.13,-37.93,-38.11,0,*42
1485255709.24,4586,10.5,73364.0,4.17,-37.81,-37.87,0,*46
1485255710.52,4587,10.44,73362.3,4.17,-37.63,-37.81,0,*4D
1485255711.74,4588,10.44,73364.5,4.17,-38.17,-38.35,0,*4E
1485255713.01,4589,10.5,73366.8,4.13,-38.91,-39.23,0,*43
1485255714.25,4590,10.44,73360.3,4.13,-38.23,-38.43,0,*45
1485255715.51,4591,10.44,73360.5,4.17,-37.87,-37.99,0,*49
1485255716.78,4592,10.44,73364.0,4.13,-38.23,-38.29,0,*4B
1485255718.07,4593,10.44,73364.3,4.17,-37.81,-37.99,0,*4D
1485255719.34,4594,10.44,73362.5,4.13,-37.93,-38.23,0,*43
1485255720.56,4595,10.44,73360.8,4.13,-37.75,-37.75,0,*46
1485255721.78,4596,10.44,73366.0,4.19,-38.05,-38.23,0,*4B
1485255723.02,4597,10.44,73362.3,4.13,-38.05,-38.11,0,*41
1485255724.3,4598,10.5,73364.3,4.17,-37.99,-37.99,0,*4F
1485255725.52,4599,10.5,73366.3,4.13,-37.75,-37.75,0,*4A
1485255726.74,4600,10.5,73366.8,4.17,-38.17,-38.17,0,*4D
1485255727.99,4601,10.44,73364.3,4.17,-38.79,-38.85,0,*4F
1485255729.23,4602,10.44,73364.0,4.13,-38.73,-38.91,0,*47
1485255730.48,4603,10.5,73366.8,4.13,-38.29,-38.55,0,*41
1485255731.76,4604,10.5,73366.0,4.13,-37.93,-38.23,0,*49
1485255733.02,4605,10.44,73364.0,4.17,-38.67,-38.67,0,*48
1485255734.25,4606,10.5,73366.8,4.13,-37.87,-38.05,0,*4A
1485255735.51,4607,10.44,73364.3,4.13,-37.69,-37.69,0,*4E
1485255736.75,4608,10.5,73364.8,4.13,-37.75,-37.69,0,*4C
1485255738.0,4609,10.5,73364.3,4.13,-38.23,-38.43,0,*46
1485255739.25,4610,10.5,73366.0,4.17,-37.87,-37.99,0,*43
1485255740.5,4611,10.44,73366.3,4.17,-37.81,-38.05,0,*4E
1485255741.79,4612,10.5,73364.8,4.17,-37.81,-37.99,0,*47
1485255743.01,4613,10.44,73360.5,4.13,-38.43,-38.55,0,*4C
1485255744.28,4614,10.44,73362.5,4.13,-38.23,-38.49,0,*40
1485255745.52,4615,10.44,73364.0,4.13,-38.43,-38.67,0,*4B
1485255746.76,4616,10.5,73364.8,4.13,-38.05,-38.11,0,*4B
1485255747.99,4617,10.5,73366.8,4.13,-38.43,-38.55,0,*48
1485255749.23,4618,10.5,73364.5,4.17,-38.79,-38.97,0,*44
1485255750.5,4619,10.44,73362.3,4.13,-38.91,-39.23,0,*49
1485255751.77,4620,10.5,73366.5,4.13,-39.23,-39.23,0,*4B
1485255752.98,4621,10.44,73362.3,4.13,-38.55,-38.73,0,*4E
1485255754.25,4622,10.5,73364.5,4.13,-37.93,-38.11,0,*4C
1485255755.47,4623,10.44,73364.0,4.11,-38.29,-38.55,0,*41
1485255756.7,4624,10.44,73360.8,4.11,-38.17,-38.49,0,*46
1485255757.95,4625,10.44,73362.0,4.11,-37.81,-37.93,0,*4F
1485255759.21,4626,10.5,73364.0,4.11,-37.81,-37.99,0,*46
1485255760.45,4627,10.44,73366.0,4.11,-37.63,-37.81,0,*42
1485255761.67,4628,10.5,73366.3,4.13,-37.57,-37.75,0,*43
1485255762.89,4629,10.44,73366.3,4.13,-37.87,-38.05,0,*47
1485255764.16,4630,10.5,73366.8,4.13,-37.93,-37.93,0,*4A
1485255765.43,4631,10.44,73364.3,4.13,-37.93,-37.93,0,*4B
1485255766.68,4632,10.44,73366.3,4.13,-37.69,-37.75,0,*45
1485255767.95,4633,10.5,73366.0,4.17,-37.69,-37.81,0,*4B
1485255769.2,4634,10.44,73360.3,4.13,-38.23,-38.61,0,*48
1485255770.45,4635,10.44,73364.3,4.17,-38.23,-38.43,0,*4D
1485255771.69,4636,10.5,73366.0,4.13,-37.69,-37.75,0,*41
1485255772.94,4637,10.5,73366.5,4.17,-38.35,-38.49,0,*42
1485255774.21,4638,10.44,73364.3,4.17,-37.69,-37.69,0,*46
1485255775.45,4639,10.44,73362.8,4.13,-37.93,-38.05,0,*43
1485255776.69,4640,10.44,73366.0,4.13,-37.69,-37.75,0,*40
1485255777.95,4641,10.5,73366.8,4.17,-37.81,-37.87,0,*4E
1485255779.21,4642,10.5,73366.8,4.17,-37.87,-37.81,0,*4D
1485255780.48,4643,10.5,73364.0,4.17,-37.69,-37.81,0,*4C
1485255781.74,4644,10.44,73364.3,4.17,-37.81,-37.87,0,*4B
1485255782.98,4645,10.44,73364.5,4.13,-37.75,-37.93,0,*40
1485255784.26,4646,10.44,73366.0,4.17,-37.99,-38.23,0,*41
1485255785.51,4647,10.44,73364.3,4.17,-37.45,-37.63,0,*4A
1485255786.76,4648,10.44,73362.5,4.19,-37.63,-37.81,0,*43
1485255788.0,4649,10.44,73362.5,4.19,-37.69,-37.81,0,*48
1485255789.25,4650,10.5,73364.5,4.19,-37.63,-37.81,0,*4A
1485255790.5,4651,10.44,73364.3,4.19,-37.99,-38.23,0,*49
1485255791.7,4652,10.5,73366.8,4.19,-37.87,-37.87,0,*44
1485255792.89,4653,10.44,73364.3,4.19,-37.87,-38.17,0,*43
1485255794.11,4654,10.44,73366.5,4.19,-37.99,-38.05,0,*48
1485255795.33,4655,10.44,73366.8,4.19,-38.05,-38.23,0,*47
1485255796.53,4656,10.44,73366.0,4.19,-37.87,-38.17,0,*46
1485255797.74,4657,10.44,73362.0,4.19,-38.23,-38.35,0,*46
1485255798.94,4658,10.44,73362.5,4.19,-38.43,-38.61,0,*4E
1485255800.13,4659,10.44,73364.5,4.19,-38.61,-38.85,0,*45
1485255801.35,4660,10.44,73360.5,4.19,-38.61,-38.79,0,*4C
1485255802.54,4661,10.44,73360.8,4.19,-38.35,-38.61,0,*45
1485255803.82,4662,10.44,73364.5,4.17,-38.49,-38.79,0,*4A
1485255805.07,4663,10.44,73360.0,4.17,-38.35,-38.49,0,*43
1485255806.32,4664,10.44,73364.0,4.17,-38.43,-38.79,0,*46
1485255807.53,4665,10.5,73364.8,4.17,-38.35,-38.61,0,*4F
1485255808.79,4666,10.44,73364.0,4.13,-38.85,-38.91,0,*4C
1485255810.01,4667,10.5,73364.8,4.17,-38.35,-38.43,0,*4D
1485255811.25,4668,10.44,73364.0,4.13,-38.11,-38.43,0,*40
1485255812.5,4669,10.44,73366.0,4.13,-38.49,-38.73,0,*4F
1485255813.71,4670,10.44,73364.5,4.13,-38.55,-38.73,0,*4A
1485255814.98,4671,10.44,73360.8,4.13,-38.67,-38.91,0,*46
1485255816.22,4672,10.5,73364.8,4.13,-38.05,-38.23,0,*48
1485255817.5,4673,10.5,73366.0,4.13,-38.29,-38.67,0,*47
1485255818.74,4674,10.44,73364.3,4.13,-38.55,-38.67,0,*4B
1485255819.97,4675,10.44,73366.3,4.17,-37.87,-37.87,0,*4F
1485255821.19,4676,10.44,73364.8,4.13,-37.75,-37.87,0,*45
1485255822.41,4677,10.44,73366.5,4.13,-37.87,-38.05,0,*4C
1485255823.69,4678,10.44,73364.8,4.13,-38.29,-38.49,0,*40
1485255824.96,4679,10.44,73364.8,4.17,-37.99,-38.23,0,*4D
1485255826.21,4680,10.44,73366.0,4.17,-38.23,-38.43,0,*43
1485255827.44,4681,10.5,73366.5,4.17,-38.05,-38.35,0,*47
1485255828.66,4682,10.44,73362.5,4.17,-38.05,-38.43,0,*45
1485255829.94,4683,10.44,73366.0,4.17,-37.99,-38.23,0,*48
1485255831.19,4684,10.44,73366.8,4.17,-37.99,-38.17,0,*48
1485255832.41,4685,10.44,73364.0,4.19,-37.81,-37.87,0,*48
1485255833.67,4686,10.44,73364.8,4.13,-38.29,-38.55,0,*4C
1485255834.92,4687,10.44,73364.5,4.17,-37.99,-38.35,0,*4B
1485255836.16,4688,10.44,73364.0,4.17,-37.99,-38.05,0,*47
1485255837.41,4689,10.44,73364.8,4.17,-38.43,-38.67,0,*4A
1485255838.66,4690,10.44,73368.0,4.17,-38.61,-38.79,0,*4D
1485255839.88,4691,10.5,73368.8,4.17,-38.17,-38.35,0,*45
1485255841.13,4692,10.44,73364.0,4.17,-38.05,-38.23,0,*42
1485255842.37,4693,10.44,73364.0,4.17,-39.03,-39.35,0,*42
1485255843.58,4694,10.44,73364.0,4.19,-38.67,-38.97,0,*41
1485255844.8,4695,10.44,73364.5,4.19,-38.23,-38.43,0,*49
1485255846.05,4696,10.5,73366.8,4.17,-38.23,-38.35,0,*45
1485255847.27,4697,10.44,73366.0,4.17,-38.05,-38.35,0,*40
1485255848.55,4698,10.44,73364.0,4.13,-38.29,-38.49,0,*4E
1485255849.79,4699,10.44,73366.3,4.17,-37.99,-38.17,0,*44
1485255851.04,4700,10.44,73366.8,4.17,-38.23,-38.43,0,*4A
1485255852.32,4701,10.44,73364.5,4.17,-38.49,-38.49,0,*4D
1485255853.57,4702,10.44,73366.0,4.13,-37.87,-37.93,0,*4F
1485255854.84,4703,10.5,73364.5,4.17,-37.63,-37.69,0,*45
1485255856.11,4704,10.44,73364.5,4.21,-37.63,-37.93,0,*42
1485255857.36,4705,10.44,73364.8,4.19,-37.81,-37.99,0,*4E
1485255858.55,4706,10.5,73364.8,4.19,-38.35,-38.61,0,*45
1485255859.75,4707,10.44,73362.3,4.19,-38.17,-38.55,0,*43
1485255860.94,4708,10.44,73362.8,4.19,-38.17,-38.35,0,*4A
1485255862.19,4709,10.44,73364.3,4.21,-37.93,-38.17,0,*43
1485255863.4,4710,10.5,73368.5,4.19,-37.99,-38.17,0,*4A
1485255864.62,4711,10.44,73362.5,4.19,-38.05,-38.23,0,*46
1485255865.85,4712,10.44,73366.0,4.19,-37.93,-37.87,0,*44
1485255867.13,4713,10.44,73364.0,4.21,-37.81,-37.99,0,*42
1485255868.39,4714,10.5,73364.5,4.21,-37.93,-38.11,0,*49
1485255869.66,4715,10.5,73368.0,4.21,-37.63,-37.93,0,*42
1485255870.9,4716,10.44,73366.0,4.21,-37.75,-37.93,0,*46
1485255872.15,4717,10.44,73364.0,4.21,-37.57,-37.63,0,*48
1485255873.4,4718,10.44,73364.3,4.21,-37.99,-38.17,0,*49
1485255874.68,4719,10.5,73366.3,4.21,-37.81,-37.99,0,*48
1485255875.92,4720,10.44,73364.0,4.21,-37.75,-37.99,0,*49
1485255877.14,4721,10.44,73366.5,4.23,-37.75,-37.93,0,*40
1485255878.38,4722,10.44,73364.3,4.25,-38.05,-38.29,0,*43
1485255879.57,4723,10.5,73366.3,4.23,-38.43,-38.73,0,*49
1485255880.79,4724,10.44,73366.8,4.23,-38.61,-38.79,0,*44
1485255882.01,4725,10.5,73364.5,4.23,-38.79,-38.97,0,*4C
1485255883.25,4726,10.5,73364.8,4.21,-38.29,-38.61,0,*41
1485255884.47,4727,10.44,73362.8,4.21,-38.55,-38.61,0,*4B
1485255885.75,4728,10.44,73366.3,4.21,-37.99,-38.29,0,*47
1485255886.97,4729,10.44,73362.5,4.21,-38.17,-38.43,0,*43
1485255888.24,4730,10.44,73366.0,4.21,-37.93,-37.99,0,*40
1485255889.52,4731,10.44,73366.3,4.21,-37.81,-37.93,0,*48
1485255890.76,4732,10.5,73366.8,4.23,-37.93,-38.11,0,*4F
1485255891.98,4733,10.44,73364.5,4.23,-38.11,-38.43,0,*4C
1485255893.16,4734,10.44,73364.0,4.23,-38.35,-38.73,0,*4E
1485255894.35,4735,10.44,73366.5,4.23,-38.43,-38.61,0,*4D
1485255895.6,4736,10.44,73366.5,4.23,-37.81,-37.93,0,*4D
1485255896.86,4737,10.44,73364.5,4.25,-37.51,-37.69,0,*42
1485255898.1,4738,10.5,73366.8,4.25,-37.75,-37.93,0,*4E
1485255899.29,4739,10.44,73364.3,4.23,-38.43,-38.73,0,*42
1485255900.51,4740,10.44,73366.3,4.23,-38.61,-38.79,0,*46
1485255901.7,4741,10.5,73364.5,4.23,-38.43,-38.61,0,*4E
1485255902.92,4742,10.5,73364.5,4.23,-37.93,-38.17,0,*4E
1485255904.16,4743,10.44,73366.8,4.25,-38.49,-38.73,0,*43
1485255905.42,4744,10.44,73364.3,4.25,-38.91,-39.23,0,*45
1485255906.61,4745,10.5,73364.5,4.23,-38.43,-38.61,0,*4A
1485255907.83,4746,10.5,73364.8,4.23,-38.61,-38.79,0,*40
1485255909.05,4747,10.5,73366.5,4.23,-37.93,-38.17,0,*4B
1485255910.26,4748,10.44,73364.0,4.23,-38.55,-38.79,0,*49
1485255911.51,4749,10.5,73368.5,4.25,-38.23,-38.35,0,*47
1485255912.72,4750,10.5,73368.3,4.23,-38.97,-39.15,0,*45
1485255913.91,4751,10.44,73364.3,4.23,-38.35,-38.55,0,*49
1485255915.13,4752,10.44,73366.8,4.23,-38.29,-38.43,0,*40
1485255916.35,4753,10.44,73366.0,4.23,-38.55,-38.79,0,*43
1485255917.6,4754,10.44,73366.0,4.23,-37.99,-38.29,0,*4E
1485255918.87,4755,10.44,73360.5,4.25,-37.93,-38.23,0,*49
1485255920.11,4756,10.44,73366.8,4.23,-38.91,-39.29,0,*4A
1485255921.33,4757,10.44,73366.5,4.23,-38.55,-38.79,0,*47
1485255922.52,4758,10.5,73366.8,4.23,-38.73,-39.09,0,*4A
1485255923.73,4759,10.44,73364.3,4.23,-38.97,-39.29,0,*43
1485255924.95,4760,10.44,73364.3,4.23,-38.55,-38.79,0,*43
1485255926.19,4761,10.44,73366.0,4.23,-37.93,-38.11,0,*49
1485255927.43,4762,10.5,73368.0,4.23,-37.63,-37.81,0,*43
1485255928.65,4763,10.44,73362.5,4.23,-37.63,-37.75,0,*49
1485255929.84,4764,10.5,73366.5,4.23,-37.75,-37.75,0,*49
1485255931.08,4765,10.44,73364.8,4.23,-37.93,-38.11,0,*4D
1485255932.34,4766,10.44,73366.5,4.25,-38.67,-38.91,0,*44
1485255933.56,4767,10.5,73366.8,4.23,-38.61,-38.79,0,*43
1485255934.79,4768,10.44,73364.5,4.23,-38.29,-38.35,0,*48
1485255936.0,4769,10.44,73364.0,4.23,-37.75,-37.93,0,*4C
1485255937.25,4770,10.44,73364.8,4.25,-38.05,-38.23,0,*4E
1485255938.49,4771,10.44,73364.0,4.23,-38.29,-38.49,0,*4B
1485255939.68,4772,10.44,73364.0,4.23,-38.35,-38.73,0,*4C
1485255940.92,4773,10.44,73364.8,4.25,-39.09,-39.41,0,*45
1485255942.11,4774,10.44,73366.3,4.23,-38.35,-38.43,0,*49
1485255943.37,4775,10.44,73364.0,4.25,-37.69,-37.93,0,*4A
1485255944.61,4776,10.44,73364.5,4.25,-37.75,-37.93,0,*44
1485255945.86,4777,10.44,73364.8,4.25,-38.29,-38.55,0,*46
1485255947.1,4778,10.44,73366.5,4.25,-37.87,-37.93,0,*47
1485255948.32,4779,10.44,73364.8,4.25,-37.57,-37.75,0,*43
1485255949.59,4780,10.44,73366.0,4.25,-37.93,-38.23,0,*41
1485255950.83,4781,10.44,73364.5,4.25,-38.11,-38.35,0,*42
1485255952.05,4782,10.5,73366.5,4.25,-38.85,-39.09,0,*42
1485255953.27,4783,10.44,73364.3,4.25,-38.55,-38.85,0,*4B
1485255954.52,4784,10.44,73364.8,4.25,-37.87,-38.23,0,*40
1485255955.77,4785,10.44,73366.3,4.25,-38.29,-38.55,0,*4B
1485255957.0,4786,10.44,73364.5,4.25,-38.73,-39.03,0,*45
1485255958.25,4787,10.44,73362.0,4.25,-37.69,-37.87,0,*42
1485255959.49,4788,10.5,73368.3,4.25,-38.05,-38.29,0,*43
1485255960.73,4789,10.44,73364.0,4.25,-38.11,-38.35,0,*4A
1485255962.0,4790,10.44,73364.0,4.25,-38.29,-38.67,0,*4E
1485255963.21,4791,10.44,73364.0,4.25,-37.75,-37.75,0,*45
1485255964.43,4792,10.44,73364.0,4.27,-37.69,-37.87,0,*44
1485255965.62,4793,10.44,73364.0,4.27,-37.57,-37.75,0,*45
1485255966.8,4794,10.44,73366.0,4.27,-37.75,-38.05,0,*4A
1485255968.05,4795,10.44,73364.0,4.27,-37.93,-38.29,0,*4D
1485255969.29,4796,10.44,73362.8,4.27,-37.81,-37.93,0,*43
1485255970.54,4797,10.44,73362.3,4.29,-37.63,-37.69,0,*45
1485255971.79,4798,10.44,73366.0,4.29,-37.69,-37.81,0,*46
1485255972.99,4799,10.44,73364.5,4.29,-37.87,-38.17,0,*47
1485255974.22,4800,10.44,73364.0,4.29,-37.81,-38.05,0,*4D
1485255975.47,4801,10.5,73366.3,4.29,-38.23,-38.29,0,*45
1485255976.69,4802,10.44,73366.0,4.29,-37.81,-38.05,0,*4F
1485255977.97,4803,10.44,73360.0,4.31,-37.63,-37.93,0,*4B
1485255979.22,4804,10.44,73360.5,4.31,-37.57,-37.63,0,*44
1485255980.5,4805,10.44,73364.3,4.31,-37.63,-37.81,0,*4E
1485255981.72,4806,10.44,73364.3,4.31,-38.61,-38.97,0,*48
1485255982.93,4807,10.44,73366.8,4.31,-38.97,-39.35,0,*49
1485255984.21,4808,10.44,73364.8,4.31,-38.79,-38.79,0,*4F
1485255985.48,4809,10.44,73366.8,4.31,-37.93,-38.11,0,*4B
1485255986.75,4810,10.44,73360.0,4.31,-37.93,-38.11,0,*43
1485255988.0,4811,10.44,73364.0,4.31,-37.75,-37.99,0,*45
1485255989.28,4812,10.44,73366.3,4.31,-37.93,-38.23,0,*40
1485255990.56,4813,10.44,73360.3,4.31,-37.81,-37.99,0,*4C
1485255991.84,4814,10.5,73366.8,4.31,-37.63,-37.81,0,*4E
1485255993.06,4815,10.5,73366.3,4.33,-37.75,-37.93,0,*49
1485255994.31,4816,10.44,73362.3,4.31,-38.11,-38.43,0,*47
1485255995.56,4817,10.44,73366.5,4.33,-38.11,-38.23,0,*42
1485255996.83,4818,10.44,73362.0,4.31,-37.63,-37.81,0,*42
1485255998.03,4819,10.44,73364.0,4.33,-38.17,-38.35,0,*4D
1485255999.28,4820,10.5,73368.3,4.33,-38.79,-39.15,0,*4C
1485256000.51,4821,10.44,73364.0,4.33,-38.61,-38.79,0,*4F
1485256001.76,4822,10.44,73366.0,4.33,-37.93,-37.99,0,*4F
1485256003.01,4823,10.44,73362.5,4.33,-37.81,-38.11,0,*42
1485256004.24,4824,10.44,73366.3,4.33,-38.61,-38.91,0,*4C
1485256005.43,4825,10.44,73362.3,4.33,-38.43,-38.61,0,*42
1485256006.69,4826,10.44,73364.8,4.33,-37.99,-38.23,0,*4F
1485256007.91,4827,10.44,73364.5,4.33,-37.99,-38.17,0,*49
1485256009.15,4828,10.44,73366.5,4.35,-37.57,-37.93,0,*41
1485256010.37,4829,10.44,73366.5,4.35,-37.57,-37.87,0,*45
1485256011.61,4830,10.44,73364.5,4.39,-37.51,-37.57,0,*4A
1485256012.83,4831,10.44,73362.5,4.35,-37.57,-37.75,0,*41
1485256014.05,4832,10.44,73364.8,4.39,-37.57,-37.87,0,*43
1485256015.27,4833,10.44,73366.5,4.35,-37.87,-38.05,0,*46
1485256016.51,4834,10.44,73362.5,4.39,-37.75,-37.93,0,*40
1485256017.73,4835,10.44,73362.3,4.39,-37.57,-37.75,0,*49
1485256018.97,4836,10.44,73364.0,4.39,-37.75,-37.93,0,*42
1485256020.21,4837,10.44,73362.3,4.43,-37.63,-37.75,0,*41
1485256021.45,4838,10.44,73366.3,4.41,-37.51,-37.81,0,*46
1485256022.7,4839,10.44,73364.8,4.43,-37.39,-37.57,0,*40
1485256023.94,4840,10.44,73366.0,4.41,-37.63,-37.81,0,*48
1485256025.19,4841,10.44,73360.8,4.43,-37.57,-37.63,0,*40
1485256026.4,4842,10.44,73366.5,4.43,-37.75,-38.05,0,*4C
1485256027.65,4843,10.44,73362.3,4.41,-37.51,-37.81,0,*4A
1485256028.87,4844,10.44,73364.3,4.43,-37.57,-37.75,0,*42
1485256030.11,4845,10.44,73366.3,4.43,-37.63,-37.75,0,*44
1485256031.36,4846,10.44,73364.3,4.43,-37.57,-37.63,0,*47
1485256032.61,4847,10.44,73362.3,4.47,-37.69,-37.87,0,*45
1485256033.83,4848,10.44,73364.8,4.45,-37.57,-37.81,0,*43
1485256035.09,4849,10.44,73366.8,4.47,-37.51,-37.69,0,*40
1485256036.34,4850,10.44,73366.3,4.45,-37.81,-37.93,0,*42
1485256037.6,4851,10.44,73366.5,4.45,-37.81,-37.99,0,*49
1485256038.84,4852,10.44,73362.5,4.49,-37.39,-37.69,0,*4A
1485256040.06,4853,10.44,73366.0,4.47,-37.57,-37.75,0,*40
1485256041.29,4854,10.5,73366.8,4.49,-37.87,-38.11,0,*49
1485256042.52,4855,10.44,73366.3,4.49,-37.87,-37.99,0,*47
1485256043.76,4856,10.44,73364.8,4.49,-37.69,-37.93,0,*4E
1485256045.0,4857,10.44,73366.3,4.51,-37.45,-37.69,0,*4D
1485256046.2,4858,10.44,73362.8,4.49,-37.57,-37.87,0,*48
1485256047.44,4859,10.5,73368.5,4.51,-38.23,-38.43,0,*4B
1485256048.68,4860,10.44,73366.3,4.49,-38.67,-38.91,0,*47
1485256049.88,4861,10.44,73364.3,4.49,-38.55,-38.85,0,*42
1485256051.13,4862,10.44,73366.0,4.49,-37.93,-38.11,0,*49
1485256052.4,4863,10.44,73364.3,4.51,-38.29,-38.49,0,*42
1485256053.64,4864,10.44,73366.5,4.49,-38.67,-38.91,0,*43
1485256054.86,4865,10.5,73368.5,4.49,-38.55,-38.67,0,*4A
1485256056.09,4866,10.44,73366.0,4.49,-37.87,-37.99,0,*47
1485256057.29,4867,10.44,73366.0,4.49,-37.87,-38.17,0,*4F
1485256058.54,4868,10.5,73368.3,4.49,-37.93,-38.11,0,*43
1485256059.78,4869,10.44,73362.5,4.51,-37.93,-38.05,0,*4E
1485256061.05,4870,10.44,73364.8,4.51,-37.63,-37.81,0,*4A
1485256062.3,4871,10.44,73366.5,4.49,-37.63,-37.99,0,*4B
1485256063.53,4872,10.44,73364.0,4.49,-38.49,-38.55,0,*40
1485256064.8,4873,10.44,73364.8,4.51,-37.93,-38.23,0,*41
1485256066.05,4874,10.44,73366.3,4.53,-38.11,-38.29,0,*4B
1485256067.27,4875,10.44,73364.5,4.51,-38.61,-38.85,0,*49
1485256068.54,4876,10.44,73364.3,4.51,-37.93,-38.23,0,*44
1485256069.77,4877,10.44,73366.3,4.53,-37.69,-37.87,0,*43
1485256070.99,4878,10.44,73364.0,4.53,-37.63,-37.87,0,*46
1485256072.22,4879,10.44,73364.5,4.53,-37.81,-38.05,0,*4E
1485256073.47,4880,10.44,73364.3,4.53,-38.11,-38.23,0,*4A
1485256074.69,4881,10.44,73366.3,4.55,-37.75,-37.87,0,*41
1485256075.94,4882,10.44,73366.8,4.55,-37.99,-38.35,0,*46
1485256077.19,4883,10.44,73362.3,4.55,-38.23,-38.35,0,*49
1485256078.41,4884,10.44,73366.8,4.53,-38.43,-38.79,0,*46
1485256079.63,4885,10.44,73364.0,4.53,-38.67,-39.09,0,*47
1485256080.85,4886,10.5,73366.8,4.53,-38.49,-38.61,0,*47
1485256082.08,4887,10.44,73360.5,4.55,-37.87,-38.05,0,*4F
1485256083.33,4888,10.5,73366.3,4.53,-37.63,-37.81,0,*4F
1485256084.57,4889,10.44,73366.0,4.55,-37.57,-37.81,0,*4F
1485256085.82,4890,10.44,73366.5,4.55,-37.39,-37.57,0,*44
1485256087.04,4891,10.44,73366.3,4.57,-37.21,-37.57,0,*4E
1485256088.23,4892,10.44,73364.5,4.57,-37.33,-37.33,0,*4C
1485256089.43,4893,10.44,73364.3,4.57,-37.33,-37.57,0,*4F
1485256090.67,4894,10.44,73362.8,4.57,-37.51,-37.69,0,*41
1485256091.89,4895,10.44,73366.5,4.61,-37.75,-37.93,0,*46
1485256093.11,4896,10.44,73362.5,4.61,-37.57,-37.81,0,*46
1485256094.33,4897,10.44,73362.0,4.61,-37.57,-37.81,0,*47
1485256095.56,4898,10.44,73362.3,4.61,-37.81,-38.17,0,*43
1485256096.79,4899,10.44,73360.3,4.61,-38.29,-38.55,0,*49
1485256098.01,4900,10.44,73364.8,4.61,-37.57,-37.69,0,*4E
1485256099.26,4901,10.44,73364.0,4.63,-37.51,-37.75,0,*46
1485256100.52,4902,10.44,73364.3,4.63,-37.51,-37.69,0,*48
1485256101.77,4903,10.44,73366.5,4.65,-37.51,-37.63,0,*45
1485256102.96,4904,10.44,73366.8,4.65,-37.75,-38.05,0,*4B
1485256104.2,4905,10.44,73362.3,4.65,-37.69,-37.93,0,*47
1485256105.44,4906,10.44,73366.0,4.63,-37.93,-38.05,0,*47
1485256106.69,4907,10.44,73360.5,4.63,-37.87,-37.93,0,*43
1485256107.91,4908,10.44,73364.8,4.65,-37.63,-37.75,0,*48
1485256109.12,4909,10.44,73364.3,4.65,-37.75,-37.93,0,*46
1485256110.36,4910,10.44,73362.8,4.65,-37.69,-37.93,0,*43
1485256111.61,4911,10.44,73366.0,4.65,-38.11,-38.29,0,*4C
1485256112.82,4912,10.44,73366.8,4.65,-37.93,-38.05,0,*44
1485256114.1,4913,10.44,73364.3,4.67,-37.81,-37.99,0,*4E